Location: Hebron
(33.0265°N, 96.8636°W)
Time: 18:12:23
(UTC+00:00)

Okean 1 - Pass Details

Date: 07 July 2022
Orbit: 532 x 552 km, 82.5° (Epoch: 18 August)

Event Time Altitude Azimuth Distance (km) Brightness Sun altitude
Rises 10:07:51 0° 335° (NNW) 2,681 7.0 -14.3°
Reaches altitude 10° 10:10:27 10° 317° (NW) 1,785 5.9 -13.9°
Maximum altitude 10:13:16 19° 271° (W) 1,296 4.8 -13.5°
Enters shadow 10:13:50 19° 259° (W) 1,318 4.7 -13.4°
